Galesburg, IL

11:50 AM CST on December 09, 2019 (GMT -0600)
Galesburg Municipal

Weather History for KGBG - May, 2019

Change the Weather History Date:

Tuesday, May 7, 2019

  Actual Average Record
Temperature  
Mean Temperature 53 °F -  
Max Temperature 57 °F 68 °F 88 °F (1965)
Min Temperature 48 °F 48 °F 30 °F (1981)
Degree Days  
Heating Degree Days 12    
Growing Degree Days 3 (Base 50)    
Moisture  
Dew Point 50 °F    
Average Humidity 90    
Maximum Humidity 97    
Minimum Humidity 78    
Precipitation  
Precipitation 0.14 in - - ()
Sea Level Pressure  
Sea Level Pressure 30.15 in    
Wind  
Wind Speed 13 mph (NE)    
Max Wind Speed 20 mph    
Max Gust Speed 23 mph    
Visibility 10 miles    
Events Rain    
Averages and records for this station are not official NWS values.
T = Trace of Precipitation, MM = Missing Value Source: NWS Daily Summary

Daily Weather History Graph

Daily Weather History Graph

Search for Another Location

Airport or City:

Astronomy

May. 07, 2019 Rise Set
Actual Time 5:52 AM CDT 8:04 PM CDT
Civil Twilight 5:22 AM CDT 8:34 PM CDT
Nautical Twilight 4:45 AM CDT 9:12 PM CDT
Astronomical Twilight 4:04 AM CDT 9:53 PM CDT
Moon 7:58 AM CDT (5/7) 11:05 PM CDT (5/7)
Length of Visible Light 15h 12m
Length of Day
14h 11m
Waxing Crescent, 9% of the Moon is Illuminated
May 7
Waxing Crescent
May 11
First Quarter
May 18
Full
May 26
Last Quarter
Jun 3
New

Hourly Weather History & Observations

Time (CDT) Temp. Dew Point Humidity Pressure Visibility Wind Dir Wind Speed Gust Speed Precip Events Conditions
12:15 AM 57.4 °F 55.9 °F 95% 30.10 in 5.0 mi NE 15.0 mph - 0.03 in Rain Rain
12:35 AM 55.6 °F 54.5 °F 96% 30.09 in 7.0 mi ENE 15.0 mph - 0.05 in Rain Light Rain
12:55 AM 55.0 °F 54.1 °F 97% 30.08 in 7.0 mi NE 13.8 mph - 0.07 in Rain Light Rain
1:15 AM 54.7 °F 53.6 °F 96% 30.07 in 7.0 mi NE 13.8 mph - 0.01 in Rain Light Rain
1:35 AM 54.7 °F 53.6 °F 96% 30.05 in 7.0 mi ENE 10.4 mph 16.1 mph 0.01 in Rain Light Rain
1:55 AM 54.5 °F 53.4 °F 96% 30.06 in 7.0 mi NE 11.5 mph - 0.01 in   Light Drizzle
2:15 AM 54.0 °F 52.5 °F 95% 30.06 in 7.0 mi ENE 9.2 mph - N/A   Overcast
2:35 AM 52.9 °F 51.1 °F 94% 30.08 in 10.0 mi ENE 16.1 mph 21.9 mph N/A   Overcast
2:55 AM 52.0 °F 50.0 °F 93% 30.07 in 10.0 mi ENE 12.7 mph 19.6 mph N/A   Overcast
3:15 AM 51.8 °F 50.0 °F 94% 30.07 in 10.0 mi ENE 10.4 mph - N/A   Overcast
3:35 AM 51.3 °F 49.1 °F 92% 30.08 in 10.0 mi ENE 9.2 mph - N/A   Overcast
3:55 AM 51.3 °F 49.1 °F 92% 30.09 in 10.0 mi ENE 8.1 mph - N/A   Overcast
4:15 AM 50.5 °F 48.6 °F 93% 30.10 in 10.0 mi NE 10.4 mph - N/A   Overcast
4:35 AM 50.0 °F 48.2 °F 94% 30.10 in 10.0 mi NE 9.2 mph - N/A   Overcast
4:55 AM 49.6 °F 48.0 °F 94% 30.12 in 10.0 mi NE 10.4 mph - N/A   Overcast
5:15 AM 49.6 °F 48.2 °F 95% 30.12 in 10.0 mi NE 8.1 mph - N/A   Overcast
5:35 AM 49.6 °F 48.2 °F 95% 30.12 in 10.0 mi ENE 11.5 mph - N/A   Overcast
5:55 AM 49.5 °F 48.0 °F 95% 30.12 in 10.0 mi NE 11.5 mph - N/A   Overcast
6:15 AM 50.0 °F 48.2 °F 94% 30.13 in 10.0 mi ENE 9.2 mph - N/A   Overcast
6:35 AM 50.0 °F 48.2 °F 94% 30.15 in 10.0 mi NE 9.2 mph - N/A   Overcast
6:55 AM 50.0 °F 48.2 °F 94% 30.17 in 10.0 mi NE 10.4 mph - N/A   Overcast
7:15 AM 50.4 °F 48.7 °F 94% 30.18 in 10.0 mi NE 10.4 mph - N/A   Overcast
7:35 AM 50.4 °F 48.6 °F 94% 30.18 in 10.0 mi NE 11.5 mph - N/A   Overcast
7:55 AM 50.9 °F 48.4 °F 91% 30.17 in 10.0 mi NE 11.5 mph 21.9 mph N/A   Overcast
8:15 AM 51.1 °F 48.4 °F 90% 30.17 in 10.0 mi NE 11.5 mph 18.4 mph N/A   Overcast
8:35 AM 51.8 °F 48.7 °F 89% 30.17 in 10.0 mi NE 12.7 mph 18.4 mph N/A   Overcast
8:55 AM 52.2 °F 48.6 °F 88% 30.17 in 10.0 mi NE 13.8 mph 19.6 mph N/A   Overcast
9:15 AM 52.5 °F 48.6 °F 86% 30.18 in 10.0 mi NE 13.8 mph 19.6 mph N/A   Overcast
9:35 AM 54.0 °F 49.1 °F 84% 30.18 in 10.0 mi NE 18.4 mph - N/A   Overcast
9:55 AM 54.3 °F 49.3 °F 83% 30.18 in 10.0 mi NE 15.0 mph 19.6 mph N/A   Overcast
10:15 AM 54.5 °F 49.1 °F 82% 30.18 in 10.0 mi NE 15.0 mph 20.7 mph N/A   Overcast
10:35 AM 55.4 °F 49.6 °F 81% 30.18 in 10.0 mi NE 13.8 mph - N/A   Overcast
10:55 AM 55.9 °F 50.0 °F 80% 30.18 in 10.0 mi NE 12.7 mph - N/A   Overcast
11:15 AM 56.5 °F 50.4 °F 80% 30.19 in 10.0 mi ENE 15.0 mph 18.4 mph N/A   Mostly Cloudy
11:35 AM 56.5 °F 50.0 °F 79% 30.19 in 10.0 mi NE 16.1 mph 21.9 mph N/A   Overcast
11:55 AM 57.2 °F 50.9 °F 79% 30.18 in 10.0 mi NE 17.3 mph - N/A   Overcast
12:15 PM 57.7 °F 51.1 °F 78% 30.18 in 10.0 mi NE 18.4 mph 23.0 mph N/A   Overcast
12:35 PM 56.5 °F 50.5 °F 80% 30.18 in 10.0 mi ENE 19.6 mph - N/A   Overcast
12:55 PM 56.3 °F 50.7 °F 82% 30.19 in 10.0 mi NE 18.4 mph 21.9 mph N/A   Overcast
1:15 PM 56.1 °F 50.5 °F 82% 30.18 in 10.0 mi NE 17.3 mph - N/A   Overcast
1:35 PM 56.3 °F 50.4 °F 80% 30.19 in 10.0 mi NE 13.8 mph - N/A   Overcast
1:55 PM 56.3 °F 50.4 °F 80% 30.19 in 10.0 mi ENE 16.1 mph 20.7 mph N/A   Overcast
2:15 PM 55.4 °F 50.2 °F 83% 30.19 in 10.0 mi ENE 12.7 mph - N/A Rain Light Rain
2:35 PM 55.4 °F 50.9 °F 85% 30.19 in 10.0 mi ENE 12.7 mph 16.1 mph N/A Rain Light Rain
2:55 PM 55.2 °F 51.1 °F 86% 30.19 in 10.0 mi NE 13.8 mph - N/A Rain Rain
3:15 PM 55.2 °F 51.8 °F 88% 30.18 in 10.0 mi ENE 12.7 mph - N/A Rain Light Rain
3:35 PM 55.4 °F 52.2 °F 89% 30.18 in 10.0 mi NE 10.4 mph - N/A Rain Light Rain
3:55 PM 54.9 °F 51.6 °F 89% 30.18 in 10.0 mi ENE 9.2 mph - N/A Rain Rain
4:15 PM 54.7 °F 51.8 °F 90% 30.18 in 10.0 mi NE 9.2 mph - N/A Rain Rain
4:35 PM 55.2 °F 52.5 °F 91% 30.17 in 10.0 mi NE 11.5 mph - 0.01 in   Drizzle
4:55 PM 55.0 °F 52.2 °F 90% 30.17 in 10.0 mi ENE 12.7 mph - 0.01 in Rain Light Rain
5:15 PM 54.9 °F 51.8 °F 89% 30.17 in 10.0 mi ENE 11.5 mph - N/A   Light Drizzle
5:35 PM 54.7 °F 51.4 °F 89% 30.18 in 10.0 mi ENE 10.4 mph - N/A   Light Drizzle
5:55 PM 54.5 °F 50.9 °F 88% 30.17 in 10.0 mi NE 13.8 mph 18.4 mph N/A Rain Light Rain
6:15 PM 54.0 °F 50.5 °F 88% 30.17 in 10.0 mi NE 12.7 mph - N/A   Light Drizzle
6:35 PM 53.6 °F 50.7 °F 90% 30.17 in 10.0 mi NE 10.4 mph - N/A Rain Light Rain
6:55 PM 53.2 °F 50.4 °F 90% 30.16 in 10.0 mi NE 10.4 mph - N/A Rain Light Rain
7:15 PM 52.9 °F 50.4 °F 91% 30.16 in 7.0 mi NE 11.5 mph - N/A   Light Drizzle
7:35 PM 52.7 °F 50.2 °F 91% 30.15 in 10.0 mi ENE 11.5 mph - N/A   Overcast
7:55 PM 52.7 °F 50.0 °F 91% 30.15 in 10.0 mi ENE 13.8 mph 19.6 mph N/A   Overcast
8:15 PM 52.3 °F 49.5 °F 90% 30.14 in 10.0 mi NE 16.1 mph 19.6 mph N/A Rain Light Rain
8:35 PM 52.2 °F 49.3 °F 90% 30.15 in 10.0 mi ENE 11.5 mph 20.7 mph N/A   Overcast
8:55 PM 52.3 °F 49.1 °F 89% 30.15 in 10.0 mi ENE 15.0 mph - N/A   Overcast
9:15 PM 51.8 °F 48.7 °F 89% 30.15 in 10.0 mi NE 13.8 mph 18.4 mph N/A   Overcast
9:35 PM 51.3 °F 48.2 °F 89% 30.16 in 10.0 mi ENE 13.8 mph - N/A Rain Rain
9:55 PM 50.9 °F 48.2 °F 90% 30.16 in 10.0 mi ENE 11.5 mph - N/A Rain Rain
10:15 PM 50.5 °F 48.4 °F 92% 30.16 in 10.0 mi ENE 9.2 mph - 0.01 in Rain Light Rain
10:35 PM 50.2 °F 48.4 °F 94% 30.15 in 7.0 mi NE 8.1 mph - 0.04 in Rain Rain
10:55 PM 49.1 °F 48.2 °F 97% 30.15 in 7.0 mi NE 10.4 mph - 0.05 in   Light Drizzle
11:15 PM 49.1 °F 48.2 °F 97% 30.14 in 10.0 mi ENE 8.1 mph - N/A   Drizzle
11:35 PM 49.1 °F 48.2 °F 97% 30.14 in 7.0 mi ENE 10.4 mph - N/A   Drizzle
11:55 PM 48.9 °F 48.2 °F 97% 30.14 in 7.0 mi ENE 9.2 mph - N/A   Overcast